Погода в Джалалабаде

Погода в Джалалабаде : погода сейчас, прогноз погоды и архив. Всё, что Вы хотите узнать о погоде в Джалалабаде!

Поиск расширенной информации на нашем сайте:

Другие новости

Новости СМИ2

Главная страница сайта

Новости сайта

03.07.2017

Напоминаем, что на нашем специализированном сайте Метеоцентр.Азия вы можете получить высокодетализированные автоматические прогнозы погоды по пунктам России, СНГ и мира в авиационном формате (включающие направление и скорость ветра, видимость, явления погоды, количество и форму облачности, нижнюю и верхнюю границу облачности).


Погода в Джалалабаде - сегодня

Время (UTC), дата Ветер
(°,м/с) 
Видим.   Явления Облачность Т
(°С)
Тd
(°С)
f(%) Тe
(°С)
Pmin
(гПа)
dP
(гПа)
Po
(мм)
O2
(г/м3)
Тmin Tmax R s Состояние
почвы
21 17.04.18 020 (С) н/о  {дождь}  10/0 средняя 
[As op]
+8.4 +6.7 89 +9  1021.1  0.7  698  271           
00 18.04.18 180 (Ю) н/о    10/0 средняя 
[As op]
+7.6 +3 73 +9  1023  1.5  700  274           
03 18.04.18 360 (С) 4000 м  дождь  10/10 600 м 
[Ns]
+6 +4.8 92 +7  1026  2.2  701  275    +13.6       
06 18.04.18 тихо () -1  10 км  дождь  10/10 600 м 
[Ns]
+5.2 +3 86 +5  1028.1  1.6  703  277  +6         
09 18.04.18 020 (С) 1-1  10 км  дождь  10/10 600 м 
[Ns]
+6.8 +4.5 85 +8  1026.4  -1  702  275           
12 18.04.18 тихо () -1  10 км  дождь  10/10 600 м 
[Ns]
+7 +4.3 83 +7  1026.3  702  275           
15 18.04.18 150 (ЮВ) н/о  дождь  10/10 600 м 
[Ns]
+6.3 +4.9 91 +7  1027.3  0.8  702  275    +9.4     
18 18.04.18 140 (ЮВ) н/о  {дождь}  9/0 средняя 
[As op]
+5.8 +4.6 92 +7  1026.7  -0.8  701  275    +9.4     
21 18.04.18 тихо ()   н/о    10/0 средняя 
[As op]
+5.7 +4.5 92 +6  1025.2  -1.4  700  275           
00 19.04.18 тихо () -1  н/о    10/0 средняя 
[As op]
+6 +4.9 93 +6  1024.1  -1  700  275           
03 19.04.18 030 (СВ) 20000 м    10/0 средняя 
[As op]
+8.5 +6.4 87 +10  1022.6  -0.4  699  271      0.0     
06 19.04.18 270 (З) 20000 м    9/9 1000 м кучево-дожд., верхняя 
[Cb cap|Ci sp]
+10 +5 71 +11  1021.6  -0.5  699  270  +5.7    0.0     
09 19.04.18 190 (Ю) 20000 м    8/6 1000 м кучево-дожд., верхняя 
[Cb cap|Ci sp]
+14.2 +5.3 55 +15  1018.3  -1.8  697  265           
12 19.04.18 280 (З) 10 км    10/0 средняя 
[As op]
+12 +5.3 64 +13  1018.9  0.1  698  269           
15 19.04.18 310 (СЗ) н/о    10/0 средняя 
[As op]
+10.6 +5.6 71 +12  1020  0.6  698  269    +15.4       
18 19.04.18 290 (З) н/о    5/0 верхняя 
[Ci sp]
+7.6 +5.8 88 +9  1021  698  272    +15.4       
21 19.04.18 010 (С) н/о    10/0 средняя 
[As op]
+7.8 +6.5 91 +9  1019.9  -0.8  697  271           
00 20.04.18 030 (СВ) н/о    10/0 средняя 
[As op]
+7.8 +7 95 +9  1019  -0.9  697  272           
03 20.04.18 020 (С) 20000 м    ясно 
+10.2 +5.5 73 +11  1017.9  -0.3  696  269    +9.1       
06 20.04.18 170 (Ю) 20000 м    9/0 верхняя 
[Ci sp]
+14.2 +5 54 +15  1015.3  -1.3  695  265  +7.4         
09 20.04.18 280 (З) 20000 м    9/0 верхняя 
[Ci sp]
+17.2 +6.7 50 +19  1012.4  -1.7  694  261           
12 20.04.18 220 (ЮЗ) 20000 м    9/0 верхняя 
[Ci sp]
+17.4 +4.8 43 +19  1011.3  -1  694  262           
15 20.04.18 010 (С) н/о    ясно 
+11.8 +6.1 68 +13  1014.7  1.2  694  266    +18.2       
18 20.04.18 020 (С) н/о    ясно 
+10.2 +7.8 85 +10  1015.2  0.8  694  267    +18.2       
21 20.04.18 020 (С) н/о    10/0 средняя 
[As op]
+9.4 +7.5 88 +9  1015.8  1.2  695  269           
Время (UTC), дата Ветер
(°,м/с) 
Видим.   Явления Облачность Т
(°С)
Тd
(°С)
f(%) Тe
(°С)
Pmin
(гПа)
dP
(гПа)
Po
(мм)
O2
(г/м3)
Тmin Tmax R s Состояние
почвы

Для получения пояснительной информации подведите курсор к названию столбца.

ПОГОДА в Джалалабаде - архив

Всё, что Вы хотите узнать о погоде в Джалалабаде - удобно и подробно!

Выберите нужную дату (начиная с 1 января 2015* года) и нажмите кнопку "Найти".
Будут отображены архивные сводки погоды по пункту Джалалабад, начиная с указанной даты.


Отображать данные в формате CSV (для использования в таблицах Excel)


Внимание! Наш архив погоды предназначен исключительно для личного некоммерческого использования в познавательных целях. Если Вам необходимы официальные справки о состоянии погоды (для производственных, юридических, коммерческих и т.п. целей), обращайтесь в органы Росгидромета.

*Примечание: данная дата относится к архиву по метеостанциям СССР (Россия, СНГ, Балтия).
Архив по метеостанциям Зарубежной Европы и Азии (кроме Китая) хранится 10 дней, по другим регионам земного шара (Китай, Африка, Америка, Австралия, Океания) - 1 день.

Джалалабад - район местоположения метеостанции


Название, широта, долгота, высота метеостанции:
Джалалабад 40.9°ш. 72.9°д. 765 м над ур. моря [Кыргызстан]

Дополнительная информация

В oтличие oт бoльшинства пoгoдных сайтoв мы публикуем пoдрoбную метеoинфoрмацию в детальнoм прoфессиoнальнoм фoрмате.

Характеристики температуры и влажнoсти вoздуха измеряются на высoте 2 м в тени вдали oт зданий и деревьев.
Скoрoсть ветра измеряется на высoте 10 м (на урoвне рoста челoвека скoрoсть ветра ниже в 1.5-2 раза). Если метеoстанция нахoдится в гoрoде или в лесу, тo скoрoсть ветра занижена на 2-4 м/с пo сравнению с oткрытым местoм. Скoрoсть ветра над акватoриями крупных рек и oзёр, а также на вершинах хoлмoв на 2-5 м/с выше, чем в oбычных услoвиях.
Атмoсфернoе давление в разных тoчках местнoсти мoжет значительнo oтличаться oт давления на метеoстанции, в зависимoсти oт услoвий рельефа (при пoдъёме на 10 м давление пoнижается примернo на 1 мм рт.ст.).